TimeEDT,TemperatureF,Dew PointF,Humidity,Sea Level PressureIn,VisibilityMPH,Wind Direction,Wind SpeedMPH,Gust SpeedMPH,PrecipitationIn,Events,Conditions,WindDirDegrees,DateUTC
12:51 AM,57.0,41.0,55,29.81,10.0,South,13.8,21.9,N/A,,Clear,170,2012-10-18 04:51:00
1:51 AM,57.0,41.0,55,29.80,10.0,SSE,10.4,23.0,N/A,,Clear,160,2012-10-18 05:51:00
2:51 AM,57.0,41.0,55,29.78,10.0,SSE,13.8,20.7,N/A,,Clear,160,2012-10-18 06:51:00
3:51 AM,55.9,39.9,55,29.77,10.0,SSE,12.7,18.4,N/A,,Clear,160,2012-10-18 07:51:00
4:51 AM,55.9,39.9,55,29.78,10.0,South,13.8,-,N/A,,Clear,170,2012-10-18 08:51:00
5:51 AM,55.9,41.0,57,29.77,10.0,SSE,11.5,19.6,N/A,,Clear,160,2012-10-18 09:51:00
6:51 AM,55.0,41.0,59,29.79,10.0,SSE,11.5,-,N/A,,Clear,150,2012-10-18 10:51:00
7:51 AM,55.9,41.0,57,29.81,10.0,South,16.1,26.5,N/A,,Clear,170,2012-10-18 11:51:00
8:51 AM,55.9,42.1,60,29.84,10.0,South,5.8,-,N/A,,Clear,170,2012-10-18 12:51:00
9:51 AM,57.9,43.0,58,29.81,10.0,South,8.1,-,N/A,,Clear,170,2012-10-18 13:51:00
10:51 AM,63.0,44.1,50,29.76,10.0,South,8.1,16.1,N/A,,Clear,190,2012-10-18 14:51:00
11:51 AM,64.0,44.1,48,29.75,10.0,SSE,15.0,21.9,N/A,,Clear,150,2012-10-18 15:51:00
12:51 PM,66.9,45.0,45,29.76,10.0,SSW,10.4,20.7,N/A,,Partly Cloudy,200,2012-10-18 16:51:00
1:51 PM,64.9,46.0,50,29.77,10.0,SSW,15.0,20.7,N/A,,Overcast,200,2012-10-18 17:51:00
2:51 PM,66.9,46.9,49,29.73,10.0,SSE,12.7,19.6,N/A,,Partly Cloudy,150,2012-10-18 18:51:00
3:51 PM,64.9,46.9,52,29.70,10.0,SSE,17.3,23.0,N/A,,Partly Cloudy,150,2012-10-18 19:51:00
4:51 PM,64.0,46.9,54,29.72,10.0,SSE,15.0,24.2,N/A,,Clear,160,2012-10-18 20:51:00
5:51 PM,55.0,46.9,74,29.82,10.0,NW,6.9,-,0.00,,Overcast,310,2012-10-18 21:51:00
6:51 PM,51.1,48.0,89,29.86,3.0,West,6.9,-,0.11,Rain,Heavy Rain,280,2012-10-18 22:51:00
7:00 PM,50.0,48.2,94,29.84,2.5,Calm,Calm,-,0.05,Rain,Heavy Rain,0,2012-10-18 23:00:00
7:12 PM,50.0,48.2,94,29.84,3.0,Calm,Calm,-,0.10,Rain,Heavy Rain,0,2012-10-18 23:12:00
7:49 PM,50.0,48.2,94,29.83,2.0,Calm,Calm,-,0.26,Rain,Heavy Rain,0,2012-10-18 23:49:00
7:51 PM,50.0,48.9,96,29.84,2.5,Calm,Calm,-,0.28,Rain,Heavy Rain,0,2012-10-18 23:51:00
8:00 PM,51.8,48.2,88,29.84,6.0,West,6.9,-,0.02,Rain,Light Rain,270,2012-10-19 00:00:00
8:41 PM,51.8,48.2,88,29.85,10.0,Calm,Calm,-,0.02,,Overcast,0,2012-10-19 00:41:00
8:51 PM,51.1,48.9,92,29.86,10.0,Calm,Calm,-,0.02,,Overcast,0,2012-10-19 00:51:00
8:58 PM,51.8,48.2,88,29.85,10.0,Calm,Calm,-,N/A,,Overcast,0,2012-10-19 00:58:00
9:51 PM,51.1,48.9,92,29.86,10.0,Calm,Calm,-,N/A,,Overcast,0,2012-10-19 01:51:00
10:46 PM,48.2,46.4,93,29.86,2.5,Calm,Calm,-,N/A,,Mostly Cloudy,0,2012-10-19 02:46:00
10:51 PM,48.0,46.9,96,29.86,2.0,Calm,Calm,-,N/A,,Mostly Cloudy,0,2012-10-19 02:51:00
11:01 PM,48.2,46.4,93,29.85,5.0,Calm,Calm,-,N/A,,Mostly Cloudy,0,2012-10-19 03:01:00
11:14 PM,48.2,46.4,93,29.84,2.5,Calm,Calm,-,N/A,,Scattered Clouds,0,2012-10-19 03:14:00
11:21 PM,48.2,46.4,93,29.84,7.0,Calm,Calm,-,N/A,,Partly Cloudy,0,2012-10-19 03:21:00
11:51 PM,48.0,46.0,93,29.85,10.0,Calm,Calm,-,N/A,,Clear,0,2012-10-19 03:51:00